Presure
184 211 221 226 253 263 317 372 354 336 317 315 299 300 307 317 308 336 369 371 419 413 497 549 587 522 519 222 203 218 209 230 189 193 197 194 163 168 170 193 174 155 174 177
235 223 234 226 225 285 269 302 342 341 319 296 290 304 292 313 314 322 349 364 398 418 501 517 553 508 525 212 213 213 203 201 209 203 183 198 168 180 193 179 181 198 191 174
225 216 221 213 245 261 276 331 368 340 338 303 303 301 309 301 315 329 365 358 402 423 484 505 509 497 503 296 169 215 201 212 209 212 184 177 183 192 173 176 171 189 177 168
215 210 207 223 241 254 291 267 369 346 336 311 292 305 304 300 328 345 375 367 403 483 518 548 507 518 625 271 165 230 147 232 189 186 190 195 184 170 179 198 169 152 195 181
220 230 200 204 252 221 268 269 299 361 347 299 288 293 299 312 320 121 355 380 416 501 580 602 526 631 330 317 260 218 211 211 184 181 196 193 200 194 170 179 180 167 162 154
190 226 221 202 237 246 270 267 385 362 351 314 315 309 299 307 310 341 349 361 417 544 596 588 619 571 314 314 216 222 227 198 183 187 181 187 177 170 169 172 186 165 171 191
203 211 230 213 225 251 280 291 315 366 350 315 324 305 326 321 318 362 326 347 386 405 528 562 522 317 298 297 216 208 243 185 208 182 213 177 181 178 164 181 210 199 172 164
211 224 224 196 232 246 280 292 305 317 335 327 300 299 307 313 322 335 336 201 372 431 149 455 405 245 283 287 268 222 218 199 192 187 188 187 177 173 186 171 173 192 144 184
222 193 219 210 222 270 268 291 343 301 334 309 328 299 288 312 305 304 321 340 275 422 403 387 299 283 280 286 264 269 219 224 201 150 184 193 183 174 168 181 189 180 174 174
221 202 226 255 242 242 259 273 304 299 353 332 322 299 296 287 304 292 314 305 336 326 330 357 282 274 271 272 232 175 226 205 207 105 190 172 157 174 178 131 175 186 189 131
219 206 230 230 224 222 271 276 300 310 356 325 317 306 300 299 296 306 325 307 319 346 381 280 267 261 271 280 236 241 208 221 215 209 190 182 182 191 179 167 178 167 180 190
204 212 221 234 265 249 284 290 299 310 327 314 303 308 300 291 300 307 342 311 315 305 302 271 257 254 277 264 228 252 200 220 195 179 186 183 164 179 187 163 169 180 165 182
229 213 222 235 229 228 260 275 268 340 283 319 305 294 310 287 285 305 316 344 307 311 349 256 259 256 273 245 223 228 233 213 211 195 213 177 188 188 173 136 167 144 142 180
198 217 223 197 212 250 265 294 287 270 317 365 330 314 279 286 288 291 297 314 315 274 271 259 255 250 227 240 236 211 213 197 214 128 185 156 193 134 152 177 125 135 132 137
222 218 217 224 218 258 271 271 282 287 320 277 359 319 302 286 287 280 292 295 306 278 230 262 230 249 242 237 222 235 183 201 199 192 185 203 181 189 175 171 187 188 169 183
223 205 222 228 202 276 276 295 279 278 343 280 371 340 305 275 288 281 281 289 302 285 249 259 199 247 241 233 173 239 159 191 202 205 193 175 189 185 113 161 140 177 190 170
206 199 222 235 261 226 301 293 279 272 328 298 340 356 313 306 287 287 281 283 288 264 245 240 245 243 239 238 227 238 236 214 225 210 191 205 205 189 178 131 149 178 154 143
225 209 221 224 289 261 296 298 275 282 282 317 349 378 325 301 283 290 274 279 282 283 252 252 247 246 203 233 151 229 236 233 202 214 190 206 179 204 172 196 176 132 141 171
223 219 264 223 272 280 290 285 274 294 331 327 356 438 349 305 293 285 287 276 281 279 235 258 248 240 244 241 234 187 153 154 209 208 217 187 210 177 169 178 183 161 184 141
222 232 239 288 271 290 285 275 277 274 335 323 313 568 413 336 305 301 275 288 282 264 277 238 239 231 214 247 238 230 225 194 221 218 204 212 190 204 182 175 137 186 191 135
228 219 282 272 297 297 271 270 274 294 333 327 306 492 426 378 323 290 283 279 288 278 271 282 258 219 244 246 241 240 235 222 238 232 208 209 183 187 208 188 204 192 191 190
248 247 272 275 290 287 264 278 271 300 334 318 306 557 549 398 359 316 299 277 276 291 283 275 264 238 237 240 233 241 239 226 226 230 239 215 194 216 213 203 201 191 208 201
227 267 274 275 283 287 285 280 298 316 333 305 343 522 542 469 370 340 309 292 275 276 278 288 284 267 261 262 238 240 241 236 232 236 217 237 214 207 213 205 207 218 210 205
267 272 266 278 287 274 273 249 312 330 336 306 540 516 526 508 379 348 329 303 286 273 267 278 273 276 273 269 245 270 238 246 232 232 228 215 228 225 224 216 213 220 205 212
275 273 278 260 278 296 276 317 331 318 302 360 536 517 491 499 442 356 334 315 314 281 270 267 273 265 275 277 278 264 259 245 238 239 207 227 236 229 218 214 224 226 219 223
268 277 269 253 285 289 312 319 310 306 300 544 528 510 483 491 464 359 330 322 308 306 291 278 267 266 262 268 274 267 261 263 260 250 238 240 239 244 223 219 205 230 222 221
273 273 268 289 284 303 318 304 295 291 518 534 522 503 478 476 454 425 340 323 313 296 289 300 272 265 265 265 262 267 273 268 266 265 276 244 237 230 237 250 239 221 215 208
Wind_Speed
103 134 145 156 148 142 112 65 54 46 46 40 49 49 51 55 54 62 54 45 43 29 27 17 15 44 61 160 153 170 160 148 118 137 129 136 102 105 109 102 108 74 98 94
145 144 149 151 129 132 128 107 60 49 41 55 53 48 47 57 54 51 47 41 45 39 19 13 22 43 48 134 167 167 138 141 150 145 127 123 106 121 111 112 108 90 96 84
137 137 144 137 141 141 123 101 53 50 31 42 47 48 51 51 51 58 46 45 48 43 30 8 25 37 48 140 116 136 149 139 143 137 128 120 127 112 101 116 106 94 92 79
118 123 122 146 152 138 120 122 60 51 36 40 55 54 55 53 58 65 46 49 56 39 15 12 24 29 30 140 83 160 88 141 129 130 129 126 123 107 107 111 105 72 92 82
123 143 110 120 142 120 128 117 95 44 27 50 52 48 46 50 63 13 50 56 53 31 6 10 26 33 131 133 144 158 156 149 112 106 131 122 128 126 102 106 112 91 81 72
90 131 137 104 153 112 123 115 52 43 28 32 28 26 26 41 53 53 45 52 49 19 6 21 34 63 124 125 149 141 145 146 118 127 119 123 111 103 95 97 106 91 96 85
104 110 136 131 151 141 121 111 97 38 21 34 31 37 49 48 49 46 36 52 51 27 46 50 64 117 119 124 150 145 141 117 138 123 127 111 110 116 97 112 100 96 94 84
110 136 119 88 125 139 121 113 96 79 25 25 41 36 49 49 47 33 43 21 41 46 9 50 84 88 119 124 132 144 148 144 138 131 122 130 112 117 109 103 101 97 56 91
144 90 123 133 139 128 124 113 86 85 30 38 22 25 25 42 36 29 38 45 19 40 55 74 124 121 125 126 128 125 134 130 141 44 131 112 123 112 86 117 105 105 95 99
149 98 155 142 153 136 125 115 103 82 16 14 15 21 30 29 37 27 26 33 46 30 60 63 112 111 112 116 132 58 132 111 135 35 132 102 73 112 117 28 84 100 101 24
145 116 152 153 143 138 117 110 109 75 21 14 12 17 21 34 31 30 20 29 31 24 48 114 116 118 122 130 135 129 140 128 131 127 135 120 119 120 117 96 111 94 106 96
106 126 149 157 123 126 109 105 104 70 55 35 31 9 14 24 33 30 25 28 27 23 74 111 111 108 108 112 120 116 129 125 127 89 128 105 76 111 117 82 91 89 70 101
146 132 147 154 145 111 119 106 96 70 67 44 26 17 21 11 19 34 28 36 32 46 26 104 109 101 106 112 127 124 127 118 125 135 110 73 125 117 101 24 97 40 31 104
90 136 151 83 124 123 115 98 88 75 69 13 7 19 20 3 17 25 26 27 23 83 107 106 105 100 86 112 116 125 99 112 123 43 118 69 128 34 60 115 43 48 36 46
148 143 141 154 143 114 108 102 87 92 66 59 20 15 22 6 21 16 24 27 36 83 63 104 83 105 109 111 117 112 76 98 91 122 108 120 107 116 104 90 106 122 78 99
149 100 152 148 73 106 105 90 83 82 55 51 22 23 22 17 26 29 39 36 31 67 91 104 62 104 103 108 64 106 53 102 91 125 119 98 121 123 22 57 41 105 121 76
108 86 154 158 127 127 92 84 81 73 66 52 28 34 25 36 31 41 40 46 48 74 85 91 98 103 104 103 108 105 110 122 116 117 114 116 122 126 113 48 38 113 36 35
154 124 148 144 95 110 91 81 81 71 73 57 35 39 40 31 28 51 42 54 58 60 100 100 97 102 58 108 35 113 113 114 94 121 117 123 109 123 95 123 96 46 51 91
156 153 122 143 106 99 87 82 81 88 74 57 41 38 47 41 37 44 58 55 66 68 72 95 103 99 108 110 112 78 48 53 117 120 114 109 117 90 89 80 113 88 122 55
149 160 144 94 101 90 85 84 81 76 72 56 46 18 48 59 55 59 44 68 71 83 78 89 89 85 58 113 110 111 111 78 114 116 124 116 118 118 106 83 45 119 124 47
156 140 96 103 91 84 86 86 81 85 76 59 47 24 48 59 66 52 57 54 74 73 86 77 89 56 116 116 112 115 111 113 112 115 113 119 92 108 113 116 117 127 125 122
96 124 104 101 89 86 88 84 86 86 77 61 55 25 27 60 69 77 75 63 61 71 83 84 99 92 78 114 104 116 115 94 116 115 118 119 105 121 123 125 126 112 121 127
141 109 101 100 95 89 88 87 89 89 78 63 55 27 28 47 68 75 84 77 69 70 73 79 88 97 101 108 116 118 119 112 117 119 113 122 119 114 124 122 117 129 126 125
116 103 102 102 93 93 90 90 93 87 76 69 26 28 29 37 69 74 76 88 81 75 72 80 77 81 90 95 117 98 121 126 111 119 116 118 121 126 127 127 124 134 112 123
99 101 98 100 95 98 91 97 88 83 74 66 24 27 31 35 58 75 75 80 85 86 83 82 85 79 82 82 92 106 117 127 124 129 82 117 122 126 124 119 130 134 133 138
102 96 97 100 96 96 98 91 83 79 78 24 23 26 31 33 46 79 74 76 81 80 89 93 89 88 84 87 86 97 101 108 118 128 124 128 121 135 122 116 103 136 132 126
98 96 98 97 93 99 94 86 79 78 27 22 22 24 29 32 44 62 81 79 79 82 81 83 94 90 92 91 91 92 93 99 105 110 106 134 124 107 118 139 139 122 106 97
Wind_Direction
344 4 6 4 1 2 360 356 356 3 358 3 2 5 6 5 4 346 345 358 359 1 335 309 248 191 196 185 184 185 192 183 206 198 200 198 213 216 216 207 218 228 228 227
359 5 5 4 2 0 1 4 358 2 358 357 358 7 4 12 1 357 354 356 356 357 330 300 211 195 193 188 188 187 199 197 189 192 202 193 214 206 201 211 215 217 219 226
2 2 5 1 3 2 2 360 352 359 356 354 356 7 11 13 5 1 346 359 350 342 329 254 203 190 186 180 190 194 197 196 186 186 199 204 201 198 215 214 222 216 224 228
355 356 2 3 3 2 2 2 355 357 356 1 2 7 8 1 2 356 2 5 357 349 320 278 181 177 176 179 185 184 199 182 201 200 193 192 201 214 209 205 219 225 219 224
359 2 358 358 4 3 1 2 360 359 360 359 1 11 7 13 13 14 17 10 4 354 333 172 164 168 173 175 185 186 189 188 206 208 191 194 195 199 220 212 217 226 229 231
348 2 3 357 3 360 1 360 357 2 5 358 15 32 26 29 20 9 27 27 2 42 161 164 158 149 173 173 188 186 185 193 206 202 209 199 210 215 222 224 219 228 224 221
350 359 356 2 1 1 0 1 1 358 13 2 33 28 33 30 25 6 47 47 32 63 95 117 130 167 172 174 188 193 184 200 191 209 196 206 206 211 219 216 215 215 224 230
356 358 1 349 356 0 359 1 359 2 10 29 2 41 46 42 49 38 53 41 32 98 151 130 150 168 174 179 184 186 187 197 200 205 198 205 214 217 216 224 224 214 232 223
355 353 0 1 360 359 359 2 359 3 356 3 39 43 36 58 57 52 62 52 38 104 129 145 165 173 179 180 178 179 187 189 197 212 208 200 207 214 226 219 218 222 227 227
352 356 355 356 357 357 358 356 1 1 350 9 59 29 64 68 57 65 53 106 93 129 128 159 170 172 175 179 182 197 185 195 197 210 203 210 223 218 217 212 223 218 220 235
348 356 355 356 357 356 356 356 359 359 348 10 36 54 64 73 73 60 83 104 95 101 160 166 172 177 181 181 183 185 194 191 193 196 203 212 212 208 217 226 223 231 224 220
353 351 352 355 350 354 355 356 359 358 357 356 356 85 78 88 76 76 91 127 91 123 165 172 177 183 184 182 184 184 199 195 207 210 204 213 215 216 212 235 230 223 228 225
342 350 350 351 351 353 353 354 354 0 356 355 354 354 119 91 101 82 83 105 139 133 147 175 182 185 182 184 187 189 192 199 198 203 201 213 207 208 213 199 225 242 239 227
352 349 345 348 351 348 351 353 354 356 354 246 293 166 340 80 120 110 116 109 130 169 173 179 183 184 187 189 191 198 194 205 196 221 213 207 209 193 212 225 228 231 226 234
340 343 346 345 346 345 349 350 352 360 357 346 222 202 174 169 149 156 127 153 160 177 185 181 186 188 190 192 196 194 199 206 197 210 216 208 213 212 226 233 222 226 240 236
336 345 342 341 343 343 346 348 349 355 353 350 246 212 191 280 171 175 165 161 157 184 186 185 195 192 194 195 202 196 202 203 200 205 214 213 216 218 246 234 215 234 232 244
341 345 339 340 340 341 343 346 345 349 352 347 334 220 225 194 196 180 177 177 170 189 192 192 193 196 195 200 202 201 200 205 202 205 216 209 213 219 223 235 218 237 253 221
331 337 336 338 339 338 340 343 339 345 350 344 341 216 216 222 220 187 196 183 184 179 196 195 199 198 211 200 215 206 205 204 205 205 216 212 220 219 228 226 242 239 240 251
329 332 331 334 334 336 335 338 335 346 347 346 340 222 215 221 222 209 194 196 187 186 212 200 202 203 204 205 205 214 212 224 211 211 212 221 216 225 230 239 229 236 237 249
327 327 330 329 332 333 333 333 334 337 342 343 340 255 215 211 214 206 217 200 199 198 192 212 209 213 217 209 209 210 210 222 213 213 213 218 225 223 233 244 250 237 234 255
325 328 327 327 331 331 330 330 332 338 338 335 335 283 220 210 211 221 219 216 206 206 207 196 210 218 210 213 212 214 212 214 212 216 218 219 232 230 228 234 230 235 240 240
324 325 324 325 327 327 327 329 330 336 335 332 330 269 245 215 210 210 213 219 219 215 212 213 212 222 220 217 219 216 216 218 217 216 218 221 228 227 228 232 233 238 236 240
322 319 321 323 324 324 327 328 331 334 333 330 324 261 249 222 212 210 212 215 219 219 223 219 216 216 218 217 221 221 220 220 218 219 223 219 225 230 230 234 237 234 238 241
316 317 319 321 323 322 323 320 333 332 330 329 272 257 250 230 212 211 211 214 216 220 219 222 224 221 222 218 223 224 225 225 223 224 225 227 224 226 228 233 236 236 242 242
315 315 319 319 321 328 322 332 331 332 329 325 271 256 247 233 216 212 211 210 212 217 219 221 221 224 224 221 224 226 226 227 229 229 231 231 230 230 233 236 235 237 240 242
312 315 316 317 325 326 330 331 331 329 329 278 267 254 242 234 219 210 211 211 211 212 217 218 220 223 226 228 229 228 228 232 233 233 233 233 235 233 238 241 238 239 242 245
311 314 315 324 324 327 331 331 329 328 297 275 262 249 237 231 218 213 211 211 211 212 215 219 221 223 226 228 230 232 233 235 235 236 239 236 239 244 242 239 239 246 247 251